Regional Weather Roundup
Issued by NWS

Home | Current Version | Previous Version | Text Only | Print | Product List | Glossary On
Versions: 1 2 3 4 5 6 7 8 9 10 11 12 13 14 15 16 17 18 19 20 21 22 23 24 25 26 27 28 29 30 31 32 33 34 35 36 37 38 39 40 41 42 43 44 45 46 47 48 49 50
561
ASUS44 KJAN 020003
RWRMS

MISSISSIPPI HOURLY WEATHER ROUNDUP
NATIONAL WEATHER SERVICE JACKSON MS
700 PM CDT MON SEP 01 2014

NOTE: "FAIR: INDICATES FEW OR NO CLOUDS BELOW 12,000 FEET WITH NO
SIGNIFICANT WEATHER AND/OR OBSTRUCTIONS TO VISIBILITY.

MSZ001>002-007>008-010>013-018>021-025>028-034>036-020100-
NORTHWEST MISSISSIPPI

CITY           SKY/WX    TMP DP  RH WIND       PRES   REMARKS
CLARKSDALE     FAIR      86  75  70 CALM      29.96S HX  95
CLEVELAND      FAIR      87  75  69 S7        29.96R HX  96
GREENWOOD      CLEAR     86  74  67 S7        29.98R HX  94
6HR MIN TEMP:  86; 6HR MAX TEMP:  92;

GREENVILLE     CLEAR     87  72  60 S8        29.95S HX  93
6HR MIN TEMP:  82; 6HR MAX TEMP:  91; 6HR PCP:  0.07;

GRENADA        FAIR      86  70  58 S5        29.98R HX  90
OLIVE BRANCH   PTCLDY    84  75  74 S9        29.97S HX  92
OXFORD         FAIR      84  70  61 SW6       30.00S
TUNICA         CLEAR     86  72  62 S8        29.96S HX  92
$$

MSZ003>006-009-014>017-022>024-029>033-037>039-020100-
NORTHEAST MISSISSIPPI

CITY           SKY/WX    TMP DP  RH WIND       PRES   REMARKS
BELMONT        FAIR      85  71  62 S5        30.01S HX  90
COLUMBUS AFB   CLEAR     87  71  57 S5        30.00S HX  92
6HR MIN TEMP:  87; 6HR MAX TEMP:  92;

CORINTH        FAIR      86  70  58 S3        29.98S HX  90
STARKVILLE     FAIR      84  72  65 CALM      30.00S
TUPELO         CLEAR     87  69  54 SW7       29.99S HX  91
6HR MIN TEMP:  87; 6HR MAX TEMP:  94;

$$

MSZ040-058-020100-
CENTRAL MISSISSIPPI

CITY           SKY/WX    TMP DP  RH WIND       PRES   REMARKS
JACKSON INTL   CLOUDY    78  74  87 S6        30.03R
6HR MIN TEMP:  78; 6HR MAX TEMP:  94; 6HR PCP: TRACE;

JACKSON HAWKNS CLOUDY    80  72  76 SE6       30.03R
6HR MIN TEMP:  79; 6HR MAX TEMP:  94; 6HR PCP: TRACE;

MERIDIAN KEY   CLOUDY    84  71  65 SW13      30.03R
6HR MIN TEMP:  84; 6HR MAX TEMP:  93;

MERIDIAN NAS   CLOUDY    85  72  65 S5        30.02S HX  91
6HR MIN TEMP:  84; 6HR MAX TEMP:  92;

RAYMOND        FAIR      77  73  88 CALM      30.04R
VICKSBURG      CLOUDY    82  72  71 SE12      29.99R
6HR MIN TEMP:  80; 6HR MAX TEMP:  93;

$$

MSZ059>079-020100-
SOUTH MISSISSIPPI

CITY           SKY/WX    TMP DP  RH WIND       PRES   REMARKS
BROOKHAVEN     FAIR      79  79 100 CALM      30.04R
HATTIESBURG    CLOUDY    85  75  72 S8        30.03S HX  93
6HR MIN TEMP:  85; 6HR MAX TEMP:  97;

MCCOMB         MOCLDY    78  74  87 SE7       30.03R
6HR MIN TEMP:  77; 6HR MAX TEMP:  91; 6HR PCP:  0.01;

NATCHEZ        MOCLDY    81  73  78 SE7       30.00R
6HR MIN TEMP:  79; 6HR MAX TEMP:  91; 6HR PCP:  0.09;

PINE BELT      CLOUDY    81  72  74 CALM      30.05S
$$

MSZ080>082-020100-
COASTAL MISSISSIPPI

CITY           SKY/WX    TMP DP  RH WIND       PRES   REMARKS
BILOXI         PTCLDY    85  76  74 S9        30.03R HX  94
6HR MIN TEMP:  85; 6HR MAX TEMP:  91;

PASCAGOULA     HVY RAIN  77  72  84 S8G24     30.04R VSB 1
6HR MIN TEMP:  77; 6HR MAX TEMP:  91; 6HR PCP:  0.09;

GULFPORT       PTCLDY    83  75  77 SW3       30.02R HX  90
6HR MIN TEMP:  83; 6HR MAX TEMP:  90; 6HR PCP: TRACE;

$$



USA.gov is the U.S. government's official web portal to all federal, state and local government web resources and services.